When you browse on this site, cookies collect data to enhance your experience and personalize the content and advertising you see.
Visit our Privacy Policy to learn more. By continuing to use the site, you agree to this use of cookies and data.
  • In Deutschland
  • Länderverzeichnis
  • Für 7 Tage
  • Wassertemperatur
  • Wetterkarte
  • Widgets
  • user-avatar
    Anmelden

    Stündliche Wetter Lesniakowizna

    Heute, 25 Mai, Montag

    Zeit Temperatur Niederschläge Wind Luftdruck Luftfeuchtigkeit
    00:00 +9°C° 0 mm 2 m/S 757 mmHg 88%
    01:00 +9°C° 0 mm 2 m/S 757 mmHg 88%
    02:00 +9°C° 0.1 mm 2 m/S 757 mmHg 89%
    03:00 +9°C° 0.1 mm 2 m/S 757 mmHg 91%
    04:00 +9°C° 0.1 mm 2 m/S 757 mmHg 92%
    05:00 +9°C° 0.1 mm 2 m/S 757 mmHg 90%
    06:00 +10°C° 0.1 mm 2 m/S 757 mmHg 88%
    07:00 +10°C° 0 mm 2 m/S 758 mmHg 87%
    08:00 +12°C° 0.2 mm 2 m/S 758 mmHg 83%
    09:00 +13°C° 0.2 mm 2 m/S 758 mmHg 79%
    10:00 +14°C° 0.2 mm 2 m/S 758 mmHg 75%
    11:00 +15°C° 0.4 mm 2 m/S 758 mmHg 70%
    12:00 +16°C° 0.4 mm 2 m/S 758 mmHg 64%
    13:00 +16°C° 0 mm 3 m/S 758 mmHg 60%
    14:00 +16°C° 0.3 mm 3 m/S 758 mmHg 61%
    15:00 +16°C° 0.3 mm 3 m/S 758 mmHg 62%
    16:00 +17°C° 0.3 mm 3 m/S 758 mmHg 63%
    17:00 +14°C° 0.3 mm 3 m/S 758 mmHg 69%
    18:00 +13°C° 0.3 mm 3 m/S 758 mmHg 75%
    19:00 +13°C° 0.3 mm 2 m/S 759 mmHg 81%
    20:00 +13°C° 0 mm 2 m/S 759 mmHg 84%
    21:00 +12°C° 0 mm 2 m/S 760 mmHg 86%
    22:00 +10°C° 0 mm 2 m/S 760 mmHg 89%
    23:00 +9°C° 0 mm 2 m/S 760 mmHg 91%

    Morgen, 26 Mai, Dienstag

    Zeit Temperatur Niederschläge Wind Luftdruck Luftfeuchtigkeit
    00:00 +9°C° 0 mm 2 m/S 760 mmHg 92%
    01:00 +9°C° 0 mm 2 m/S 760 mmHg 94%
    02:00 +8°C° 0 mm 2 m/S 761 mmHg 94%
    03:00 +8°C° 0 mm 3 m/S 761 mmHg 95%
    04:00 +8°C° 0 mm 3 m/S 761 mmHg 96%
    05:00 +9°C° 0 mm 3 m/S 761 mmHg 92%
    06:00 +11°C° 0 mm 3 m/S 762 mmHg 88%
    07:00 +12°C° 0 mm 3 m/S 762 mmHg 85%
    08:00 +14°C° 0.2 mm 3 m/S 762 mmHg 78%
    09:00 +15°C° 0.2 mm 4 m/S 762 mmHg 72%
    10:00 +18°C° 0.2 mm 4 m/S 762 mmHg 66%
    11:00 +17°C° 0.3 mm 5 m/S 762 mmHg 62%
    12:00 +19°C° 0.3 mm 5 m/S 762 mmHg 59%
    13:00 +19°C° 0.3 mm 5 m/S 762 mmHg 56%
    14:00 +19°C° 0.3 mm 5 m/S 761 mmHg 57%
    15:00 +19°C° 0.3 mm 5 m/S 761 mmHg 59%
    16:00 +19°C° 0.3 mm 5 m/S 761 mmHg 61%
    17:00 +17°C° 0.2 mm 5 m/S 761 mmHg 67%
    18:00 +15°C° 0.2 mm 4 m/S 762 mmHg 73%
    19:00 +14°C° 0.2 mm 3 m/S 762 mmHg 80%
    20:00 +13°C° 0 mm 3 m/S 762 mmHg 83%
    21:00 +12°C° 0 mm 3 m/S 762 mmHg 87%
    22:00 +12°C° 0 mm 3 m/S 763 mmHg 90%
    23:00 +11°C° 0 mm 3 m/S 762 mmHg 92%

    übermorgen, 27 Mai, Mittwoch

    Zeit Temperatur Niederschläge Wind Luftdruck Luftfeuchtigkeit
    00:00 +11°C° 0 mm 3 m/S 762 mmHg 93%
    01:00 +10°C° 0 mm 3 m/S 762 mmHg 94%
    02:00 +10°C° 0 mm 3 m/S 762 mmHg 95%
    03:00 +9°C° 0 mm 3 m/S 762 mmHg 95%
    04:00 +9°C° 0 mm 3 m/S 762 mmHg 95%
    05:00 +11°C° 0 mm 3 m/S 762 mmHg 91%
    06:00 +12°C° 0 mm 3 m/S 762 mmHg 86%
    07:00 +14°C° 0 mm 3 m/S 763 mmHg 82%
    08:00 +16°C° 0.2 mm 3 m/S 762 mmHg 76%
    09:00 +18°C° 0.2 mm 4 m/S 762 mmHg 69%
    10:00 +19°C° 0.2 mm 4 m/S 762 mmHg 63%
    11:00 +19°C° 0.2 mm 4 m/S 761 mmHg 60%
    12:00 +20°C° 0.2 mm 4 m/S 761 mmHg 57%
    13:00 +20°C° 0.2 mm 4 m/S 761 mmHg 55%
    14:00 +20°C° 0.2 mm 4 m/S 760 mmHg 56%
    15:00 +20°C° 0.2 mm 4 m/S 760 mmHg 56%
    16:00 +20°C° 0.2 mm 4 m/S 760 mmHg 57%
    17:00 +18°C° 0.1 mm 4 m/S 760 mmHg 63%
    18:00 +17°C° 0.1 mm 3 m/S 760 mmHg 69%
    19:00 +16°C° 0.1 mm 3 m/S 760 mmHg 75%
    20:00 +15°C° 0 mm 2 m/S 760 mmHg 78%
    21:00 +14°C° 0 mm 2 m/S 760 mmHg 81%
    22:00 +13°C° 0 mm 2 m/S 760 mmHg 83%
    23:00 +12°C° 0 mm 1 m/S 760 mmHg 84%

    28 Mai, Donnerstag

    Zeit Temperatur Niederschläge Wind Luftdruck Luftfeuchtigkeit
    00:00 +12°C° 0 mm 1 m/S 759 mmHg 85%
    01:00 +11°C° 0 mm 1 m/S 759 mmHg 86%
    02:00 +11°C° 0 mm 1 m/S 759 mmHg 86%
    03:00 +11°C° 0 mm 1 m/S 759 mmHg 86%
    04:00 +11°C° 0 mm 1 m/S 759 mmHg 86%
    05:00 +12°C° 0.1 mm 2 m/S 758 mmHg 84%
    06:00 +12°C° 0.1 mm 2 m/S 758 mmHg 83%
    07:00 +12°C° 0.1 mm 3 m/S 758 mmHg 81%
    08:00 +13°C° 0.1 mm 3 m/S 758 mmHg 74%
    09:00 +15°C° 0.1 mm 4 m/S 758 mmHg 68%
    10:00 +16°C° 0.1 mm 5 m/S 758 mmHg 61%
    11:00 +17°C° 0 mm 5 m/S 757 mmHg 58%
    12:00 +19°C° 0 mm 5 m/S 757 mmHg 54%
    13:00 +19°C° 0 mm 5 m/S 757 mmHg 51%
    14:00 +19°C° 0.2 mm 5 m/S 756 mmHg 55%
    15:00 +17°C° 0.2 mm 6 m/S 756 mmHg 59%
    16:00 +17°C° 0.2 mm 7 m/S 756 mmHg 64%
    17:00 +15°C° 0.1 mm 6 m/S 756 mmHg 68%
    18:00 +14°C° 0.1 mm 6 m/S 756 mmHg 72%
    19:00 +13°C° 0.1 mm 6 m/S 757 mmHg 76%
    20:00 +12°C° 0 mm 5 m/S 757 mmHg 75%
    21:00 +9°C° 0 mm 5 m/S 757 mmHg 75%
    22:00 +8°C° 0 mm 5 m/S 757 mmHg 74%
    23:00 +7°C° 0 mm 5 m/S 757 mmHg 74%

    29 Mai, Freitag

    Zeit Temperatur Niederschläge Wind Luftdruck Luftfeuchtigkeit
    00:00 +6°C° 0 mm 5 m/S 758 mmHg 75%
    01:00 +6°C° 0 mm 4 m/S 758 mmHg 75%
    02:00 +5°C° 0 mm 4 m/S 758 mmHg 76%
    03:00 +5°C° 0 mm 4 m/S 758 mmHg 77%
    04:00 +5°C° 0 mm 4 m/S 758 mmHg 78%
    05:00 +6°C° 0 mm 5 m/S 758 mmHg 73%
    06:00 +7°C° 0 mm 5 m/S 758 mmHg 69%
    07:00 +8°C° 0 mm 5 m/S 758 mmHg 64%
    08:00 +10°C° 0 mm 5 m/S 758 mmHg 61%
    09:00 +12°C° 0 mm 5 m/S 757 mmHg 57%
    10:00 +14°C° 0 mm 5 m/S 757 mmHg 54%
    11:00 +14°C° 0.4 mm 6 m/S 757 mmHg 56%
    12:00 +14°C° 0.4 mm 6 m/S 756 mmHg 59%
    13:00 +14°C° 0.4 mm 7 m/S 756 mmHg 61%
    14:00 +14°C° 0.4 mm 6 m/S 756 mmHg 63%
    15:00 +14°C° 0.4 mm 6 m/S 756 mmHg 64%
    16:00 +14°C° 0.4 mm 6 m/S 755 mmHg 66%
    17:00 +13°C° 0.5 mm 6 m/S 755 mmHg 72%
    18:00 +10°C° 0.5 mm 6 m/S 755 mmHg 78%
    19:00 +9°C° 0.5 mm 5 m/S 755 mmHg 84%
    20:00 +10°C° 0 mm 4 m/S 755 mmHg 86%
    21:00 +8°C° 0 mm 4 m/S 755 mmHg 87%
    22:00 +8°C° 0 mm 3 m/S 755 mmHg 89%
    23:00 +7°C° 0 mm 3 m/S 755 mmHg 90%

    30 Mai, Samstag

    Zeit Temperatur Niederschläge Wind Luftdruck Luftfeuchtigkeit
    00:00 +7°C° 0 mm 3 m/S 755 mmHg 90%
    01:00 +6°C° 0 mm 2 m/S 755 mmHg 91%
    02:00 +6°C° 0 mm 2 m/S 755 mmHg 91%
    03:00 +5°C° 0 mm 3 m/S 755 mmHg 92%
    04:00 +5°C° 0 mm 3 m/S 755 mmHg 92%
    05:00 +7°C° 0 mm 2 m/S 755 mmHg 90%
    06:00 +9°C° 0 mm 2 m/S 755 mmHg 89%
    07:00 +10°C° 0 mm 2 m/S 755 mmHg 87%
    08:00 +12°C° 0 mm 2 m/S 755 mmHg 83%
    09:00 +13°C° 0 mm 2 m/S 755 mmHg 80%
    10:00 +14°C° 0 mm 2 m/S 755 mmHg 76%
    11:00 +14°C° 0 mm 2 m/S 755 mmHg 75%
    12:00 +15°C° 0 mm 2 m/S 755 mmHg 74%
    13:00 +15°C° 0 mm 2 m/S 754 mmHg 73%
    14:00 +16°C° 0 mm 2 m/S 754 mmHg 73%
    15:00 +16°C° 0 mm 2 m/S 754 mmHg 74%
    16:00 +16°C° 0 mm 2 m/S 754 mmHg 75%
    17:00 +16°C° 0.1 mm 2 m/S 754 mmHg 78%
    18:00 +15°C° 0.1 mm 2 m/S 753 mmHg 82%
    19:00 +15°C° 0.1 mm 2 m/S 753 mmHg 85%
    20:00 +15°C° 1.1 mm 2 m/S 753 mmHg 89%
    21:00 +14°C° 1.1 mm 2 m/S 753 mmHg 92%
    22:00 +14°C° 1.1 mm 2 m/S 753 mmHg 95%
    23:00 +14°C° 0.6 mm 2 m/S 753 mmHg 95%
    Mehr zeigen